Weather History for KTBX - September, 2012

Change the Weather History Date:

Monday, September 17, 2012

  Actual Average (KWRL) Record (KWRL)
Temperature  
Mean Temperature 50 °F 58 °F  
Max Temperature 57 °F 74 °F 94 °F (1964)
Min Temperature 42 °F 42 °F 27 °F (1965)
Degree Days  
Heating Degree Days 16 8  
Month to date heating degree days 82  
Since 1 July heating degree days 118  
Cooling Degree Days 0 1  
Month to date cooling degree days 27  
Year to date cooling degree days 533  
Moisture  
Dew Point 33 °F    
Average Humidity 56    
Maximum Humidity 81    
Minimum Humidity 33    
Precipitation  
Precipitation 0.00 in 0.03 in 0.44 in (2013)
Month to date precipitation 0.42  
Year to date precipitation 5.87  
Sea Level Pressure  
Sea Level Pressure 30.36 in    
Wind  
Wind Speed 9 mph ()    
Max Wind Speed 15 mph    
Max Gust Speed 21 mph    
Visibility 10.0 miles    
Events Rain    
T = Trace of Precipitation, MM = Missing Value Source: Averaged Metar Reports

Daily Weather History Graph

Daily Weather History Graph

Search for Another Location

Airport or City:

Trip Planner

Search our weather history database for the weather conditions in past years. The results will help you decide how hot, cold, wet, or windy it might be!

Date:

Astronomy

Sep. 17, 2012 Rise Set
Actual Time 6:55 AM MDT 7:18 PM MDT
Civil Twilight 6:26 AM MDT 7:47 PM MDT
Nautical Twilight 5:52 AM MDT 8:20 PM MDT
Astronomical Twilight 5:18 AM MDT 8:55 PM MDT
Moon 8:53 AM MDT (9/17) 7:56 PM MDT (9/17)
Length of Visible Light 13h 20m
Length of Day
12h 23m
Waxing Crescent, 4% of the Moon is Illuminated
Sep 17
Waxing Crescent
Sep 22
First Quarter
Sep 29
Full
Oct 8
Last Quarter
Oct 15
New

Hourly Weather History & Observations

Time (MDT) Temp. Windchill Dew Point Humidity Pressure Visibility Wind Dir Wind Speed Gust Speed Precip Events Conditions
12:15 AM 44.6 °F 39.2 °F 35.6 °F 71% 30.38 in 10.0 mi NW 10.4 mph - N/A   Overcast
12:35 AM 46.4 °F 42.4 °F 35.6 °F 66% 30.36 in 10.0 mi North 8.1 mph - N/A   Scattered Clouds
12:55 AM 44.6 °F 40.2 °F 35.6 °F 71% 30.36 in 10.0 mi NW 8.1 mph - N/A   Scattered Clouds
1:15 AM 44.6 °F 39.2 °F 35.6 °F 71% 30.36 in 10.0 mi WNW 10.4 mph - N/A   Mostly Cloudy
1:35 AM 44.6 °F 39.2 °F 35.6 °F 71% 30.36 in 10.0 mi NW 10.4 mph - N/A   Overcast
1:55 AM 44.6 °F 39.7 °F 35.6 °F 71% 30.37 in 10.0 mi NW 9.2 mph - N/A   Overcast
2:15 AM 44.6 °F 38.4 °F 35.6 °F 71% 30.36 in 10.0 mi NNW 12.7 mph - N/A   Overcast
2:35 AM 44.6 °F 39.7 °F 35.6 °F 71% 30.36 in 10.0 mi NNW 9.2 mph - N/A Rain Light Rain
2:55 AM 44.6 °F 38.1 °F 35.6 °F 71% 30.36 in 10.0 mi NNW 13.8 mph - N/A Rain Light Rain
3:15 AM 44.6 °F 39.7 °F 35.6 °F 71% 30.35 in 10.0 mi NNW 9.2 mph - N/A   Overcast
3:35 AM 44.6 °F 40.7 °F 35.6 °F 71% 30.34 in 10.0 mi NNW 6.9 mph - N/A   Mostly Cloudy
3:55 AM 42.8 °F 36.2 °F 37.4 °F 81% 30.34 in 10.0 mi NNW 12.7 mph - N/A   Overcast
4:15 AM 42.8 °F 35.8 °F 37.4 °F 81% 30.34 in 10.0 mi NNW 13.8 mph - N/A   Overcast
4:35 AM 42.8 °F 35.8 °F 37.4 °F 81% 30.35 in 10.0 mi NNW 13.8 mph - N/A   Overcast
5:15 AM 42.8 °F 35.8 °F 35.6 °F 76% 30.35 in 10.0 mi NNW 13.8 mph - N/A   Overcast
5:35 AM 42.8 °F 35.4 °F 35.6 °F 76% 30.35 in 10.0 mi NNW 15.0 mph - N/A   Overcast
5:55 AM 42.8 °F 35.4 °F 37.4 °F 81% 30.36 in 10.0 mi NNW 15.0 mph - N/A   Overcast
6:15 AM 42.8 °F 35.8 °F 37.4 °F 81% 30.36 in 10.0 mi NW 13.8 mph - N/A   Overcast
6:35 AM 42.8 °F 35.8 °F 37.4 °F 81% 30.36 in 10.0 mi NW 13.8 mph - N/A   Overcast
6:55 AM 42.8 °F 36.2 °F 37.4 °F 81% 30.36 in 10.0 mi NW 12.7 mph - N/A   Overcast
7:15 AM 42.8 °F 36.6 °F 37.4 °F 81% 30.36 in 10.0 mi NW 11.5 mph - N/A   Overcast
7:35 AM 42.8 °F 37.0 °F 37.4 °F 81% 30.37 in 10.0 mi NW 10.4 mph - N/A   Overcast
7:55 AM 42.8 °F 38.6 °F 37.4 °F 81% 30.38 in 10.0 mi NW 6.9 mph - N/A   Overcast
8:15 AM 42.8 °F 38.6 °F 37.4 °F 81% 30.38 in 10.0 mi NNW 6.9 mph - N/A   Overcast
8:35 AM 42.8 °F 38.0 °F 35.6 °F 76% 30.37 in 10.0 mi NNW 8.1 mph - N/A   Overcast
8:55 AM 42.8 °F 38.6 °F 35.6 °F 76% 30.38 in 10.0 mi NNW 6.9 mph - N/A   Scattered Clouds
9:15 AM 44.6 °F 40.2 °F 35.6 °F 71% 30.38 in 10.0 mi NNW 8.1 mph - N/A   Clear
9:35 AM 46.4 °F 45.2 °F 35.6 °F 66% 30.38 in 10.0 mi North 3.5 mph - N/A   Clear
9:55 AM 46.4 °F - 33.8 °F 62% 30.38 in 10.0 mi Calm Calm - N/A   Clear
10:15 AM 48.2 °F - 35.6 °F 62% 30.38 in 10.0 mi Calm Calm - N/A   Clear
10:35 AM 50.0 °F - 35.6 °F 58% 30.37 in 10.0 mi Calm Calm - N/A   Clear
11:15 AM 50.0 °F - 35.6 °F 58% 30.38 in 10.0 mi WNW 4.6 mph - N/A   Clear
11:35 AM 51.8 °F - 37.4 °F 58% 30.38 in 10.0 mi Calm Calm - N/A   Scattered Clouds
11:55 AM 51.8 °F - 33.8 °F 50% 30.38 in 10.0 mi NNW 6.9 mph - N/A   Mostly Cloudy
12:15 PM 53.6 °F - 32.0 °F 44% 30.38 in 10.0 mi West 4.6 mph - N/A   Mostly Cloudy
12:35 PM 51.8 °F - 33.8 °F 50% 30.38 in 10.0 mi NNW 5.8 mph - N/A   Scattered Clouds
12:55 PM 53.6 °F - 33.8 °F 47% 30.37 in 10.0 mi NW 6.9 mph - N/A   Mostly Cloudy
1:15 PM 53.6 °F - 32.0 °F 44% 30.37 in 10.0 mi North 8.1 mph - N/A   Scattered Clouds
1:35 PM 53.6 °F - 30.2 °F 41% 30.36 in 10.0 mi NW 10.4 mph - N/A   Clear
1:55 PM 53.6 °F - 28.4 °F 38% 30.36 in 10.0 mi NNW 15.0 mph 20.7 mph N/A   Clear
2:15 PM 55.4 °F - 28.4 °F 36% 30.36 in 10.0 mi NW 13.8 mph 19.6 mph N/A   Clear
2:35 PM 55.4 °F - 30.2 °F 38% 30.36 in 10.0 mi NW 10.4 mph 19.6 mph N/A   Clear
2:55 PM 57.2 °F - 28.4 °F 33% 30.35 in 10.0 mi North 13.8 mph 17.3 mph N/A   Clear
3:15 PM 55.4 °F - 28.4 °F 36% 30.35 in 10.0 mi North 13.8 mph 17.3 mph N/A   Clear
3:35 PM 55.4 °F - 28.4 °F 36% 30.34 in 10.0 mi NNW 5.8 mph - N/A   Clear
3:55 PM 55.4 °F - 28.4 °F 36% 30.34 in 10.0 mi NNW 15.0 mph - N/A   Clear
4:15 PM 55.4 °F - 28.4 °F 36% 30.34 in 10.0 mi NNW 10.4 mph 19.6 mph N/A   Clear
4:35 PM 55.4 °F - 28.4 °F 36% 30.34 in 10.0 mi North 11.5 mph - N/A   Clear
4:55 PM 55.4 °F - 28.4 °F 36% 30.33 in 10.0 mi North 15.0 mph - N/A   Clear
5:15 PM 55.4 °F - 28.4 °F 36% 30.33 in 10.0 mi North 6.9 mph - N/A   Clear
5:35 PM 55.4 °F - 28.4 °F 36% 30.33 in 10.0 mi NNW 5.8 mph 17.3 mph N/A   Clear
5:55 PM 55.4 °F - 28.4 °F 36% 30.33 in 10.0 mi NNW 11.5 mph - N/A   Clear
6:15 PM 55.4 °F - 26.6 °F 33% 30.33 in 10.0 mi NNW 10.4 mph - N/A   Clear
6:35 PM 55.4 °F - 28.4 °F 36% 30.34 in 10.0 mi North 8.1 mph - N/A   Clear
7:15 PM 53.6 °F - 28.4 °F 38% 30.34 in 10.0 mi North 6.9 mph - N/A   Clear
7:35 PM 51.8 °F - 26.6 °F 38% 30.34 in 10.0 mi North 9.2 mph - N/A   Clear
7:55 PM 51.8 °F - 28.4 °F 41% 30.34 in 10.0 mi North 9.2 mph - N/A   Clear
8:15 PM 51.8 °F - 28.4 °F 41% 30.34 in 10.0 mi North 10.4 mph - N/A   Clear
8:35 PM 51.8 °F - 28.4 °F 41% 30.35 in 10.0 mi North 6.9 mph - N/A   Clear
8:55 PM 51.8 °F - 28.4 °F 41% 30.36 in 10.0 mi North 4.6 mph - N/A   Clear
9:15 PM 51.8 °F - 28.4 °F 41% 30.36 in 10.0 mi Calm Calm - N/A   Clear
9:35 PM 53.6 °F - 28.4 °F 38% 30.36 in 10.0 mi South 4.6 mph - N/A   Clear
10:15 PM 53.6 °F - 28.4 °F 38% 30.36 in 10.0 mi South 6.9 mph - N/A   Clear
10:35 PM 51.8 °F - 28.4 °F 41% 30.36 in 10.0 mi South 8.1 mph - N/A   Clear
11:15 PM 51.8 °F - 28.4 °F 41% 30.36 in 10.0 mi SSE 13.8 mph - N/A   Clear
11:35 PM 51.8 °F - 28.4 °F 41% 30.36 in 10.0 mi SSE 13.8 mph - N/A   Clear
11:55 PM 51.8 °F - 28.4 °F 41% 30.35 in 10.0 mi South 15.0 mph - N/A   Clear